EW3247 Weather Reports


time (UTC)temp
C
wind
direction
speed
KPH
gust
KPH
rain 1hr
cm
rain 24hr
cm
rain mn
cm
humidity
%
barometer
mb
20260505011030 19 92 0.0 1.6 0.00 0.00 0.00 49 1010.1
20260505010022 19 75 0.0 1.6 0.00 0.00 0.00 49 1010.0
20260505005031 20 91 0.0 3.2 0.00 0.00 0.00 48 1010.0
20260505004023 20 77 0.0 1.6 0.00 0.00 0.00 46 1009.8
20260505003101 20 94 1.6 4.8 0.00 0.00 0.00 45 1009.8
20260505002023 21 121 1.6 8.0 0.00 0.00 0.00 44 1009.9
20260505001031 21 112 0.0 4.8 0.00 0.00 0.00 45 1009.7
20260505000022 21 143 0.0 4.8 0.00 0.00 0.00 44 1009.6
20260504235031 21 109 0.0 1.6 0.00 0.00 0.00 44 1009.7
20260504234022 21 89 1.6 4.8 0.00 0.00 0.00 43 1009.7
20260504233022 21 114 0.0 1.6 0.00 0.00 0.00 42 1009.5
20260504232024 22 88 1.6 9.7 0.00 0.00 0.00 40 1009.5
20260504231031 22 88 1.6 4.8 0.00 0.00 0.00 40 1009.6
20260504230023 23 105 1.6 8.0 0.00 0.00 0.00 38 1009.7
20260504225031 22 140 1.6 3.2 0.00 0.00 0.00 39 1009.6
20260504224023 22 97 1.6 3.2 0.00 0.00 0.00 39 1009.4
20260504223022 22 134 1.6 4.8 0.00 0.00 0.00 38 1009.5
20260504222022 22 131 1.6 6.4 0.00 0.00 0.00 37 1009.4
20260504221030 23 104 1.6 9.7 0.00 0.00 0.00 37 1009.4
20260504220042 23 122 1.6 6.4 0.00 0.00 0.00 37 1009.4
20260504215029 24 106 1.6 8.0 0.00 0.00 0.00 36 1009.5
20260504214023 25 102 1.6 9.7 0.00 0.00 0.00 36 1009.5
20260504213023 25 168 1.6 6.4 0.00 0.00 0.00 35 1009.6
20260504212023 25 125 1.6 6.4 0.00 0.00 0.00 35 1009.7
20260504211031 23 150 1.6 4.8 0.00 0.00 0.00 36 1009.6
20260504210022 23 103 3.2 9.7 0.00 0.00 0.00 36 1009.7
20260504205030 24 143 1.6 4.8 0.00 0.00 0.00 35 1009.7
20260504204024 24 149 1.6 4.8 0.00 0.00 0.00 35 1009.7
20260504203026 24 120 1.6 4.8 0.00 0.00 0.00 35 1009.9
20260504202023 24 113 1.6 8.0 0.00 0.00 0.00 36 1010.1
20260504201051 24 139 1.6 6.4 0.00 0.00 0.00 35 1010.0
20260504200023 25 109 1.6 6.4 0.00 0.00 0.00 35 1010.0
20260504195051 25 252 1.6 4.8 0.00 0.00 0.00 35 1010.2
20260504194042 25 178 1.6 3.2 0.00 0.00 0.00 34 1010.4
20260504193026 23 82 1.6 4.8 0.00 0.00 0.00 37 1010.7
20260504192016 24 138 3.2 8.0 0.00 0.00 0.00 37 1010.9
20260504191030 24 6 1.6 4.8 0.00 0.00 0.00 36 1011.0
20260504190024 24 178 3.2 9.7 0.00 0.00 0.00 36 1011.3
20260504185031 25 185 1.6 4.8 0.00 0.00 0.00 35 1011.3
20260504184024 23 141 1.6 4.8 0.00 0.00 0.00 37 1011.5
20260504183027 23 155 3.2 9.7 0.00 0.00 0.00 36 1011.5
20260504182017 23 154 3.2 11.3 0.00 0.00 0.00 36 1011.7
20260504181030 23 94 1.6 9.7 0.00 0.00 0.00 36 1011.8
20260504180042 23 180 1.6 4.8 0.00 0.00 0.00 34 1012.0
20260504175032 23 136 1.6 4.8 0.00 0.00 0.00 35 1012.1
20260504174024 22 165 1.6 6.4 0.00 0.00 0.00 36 1012.2
20260504173048 22 164 3.2 9.7 0.00 0.00 0.00 35 1012.2
20260504172018 22 167 1.6 4.8 0.00 0.00 0.00 36 1012.3
20260504171031 22 213 1.6 6.4 0.00 0.00 0.00 35 1012.5
20260504151031 20 72 1.6 4.8 0.00 0.00 0.00 39 1013.8
20260504141029 17 153 1.6 4.8 0.00 0.00 0.00 46 1014.0
20260504081015 9 0.0 0.0 0.00 0.00 0.00 67 1015.2
20260504050023 8 0.0 0.0 0.00 0.00 0.00 61 1015.4
20260504045015 8 0.0 0.0 0.00 0.00 0.00 59 1015.4
20260504044025 8 0.0 0.0 0.00 0.00 0.00 56 1015.5
20260504043016 9 59 0.0 1.6 0.00 0.00 0.00 56 1015.5
20260504042024 10 0.0 0.0 0.00 0.00 0.00 53 1015.4
20260504041016 9 37 0.0 1.6 0.00 0.00 0.00 55 1015.4
20260504040024 8 343 0.0 1.6 0.00 0.00 0.00 59 1015.3
20260504035016 8 314 0.0 1.6 0.00 0.00 0.00 59 1015.3
20260504034023 8 275 0.0 1.6 0.00 0.00 0.00 61 1015.2
20260504033030 7 0.0 0.0 0.00 0.00 0.00 64 1015.2
20260504032023 7 0.0 0.0 0.00 0.00 0.00 63 1015.0
20260504031017 7 0.0 0.0 0.00 0.00 0.00 63 1014.8
20260504030045 7 0.0 0.0 0.00 0.00 0.00 62 1014.9
20260504025017 7 0.0 0.0 0.00 0.00 0.00 63 1014.8
20260504024024 8 0.0 0.0 0.00 0.00 0.00 63 1014.9
20260504023036 8 0.0 0.0 0.00 0.00 0.00 60 1014.9
20260504022024 8 0.0 0.0 0.00 0.00 0.00 59 1014.7
20260504021036 8 0.0 0.0 0.00 0.00 0.00 62 1014.7
20260504020023 8 0.0 0.0 0.00 0.00 0.00 63 1014.7
20260504015049 8 0.0 0.0 0.00 0.00 0.00 62 1014.6
20260504014025 8 0.0 0.0 0.00 0.00 0.00 65 1014.8
20260504013017 8 0.0 0.0 0.00 0.00 0.00 63 1014.7
20260504012045 8 0.0 0.0 0.00 0.00 0.00 60 1014.6